レモン彗星

C/2017 S7 ( Lemmon )

English version
Home page
Updated on December 24, 2017

---------------------------------------------------------------------

・ プロフィール

発見日 2017年9月26日
発見光度 19.6等
発見者 R. G. Matheny (Mount Lemmon survey)

・ 写真集

・ 軌道要素

Epoch 2017 June 16.0 TT = JDT 2457920.5
T 2017 May 28.19757 TT                                  MPCW
q   7.6146772            (2000.0)            P               Q
z  -0.0003274      Peri.  187.76724     +0.19981135     +0.53582411
 +/-0.0000058      Node   262.78679     +0.93756728     +0.13869449
e   1.0024931      Incl.  124.21938     +0.28468057     -0.83286035
From 94 observations 2016 Dec. 18-2017 Nov. 17, mean residual 0".4.

・ 光度変化

        m1 = 6.5 + 5 logΔ + 10.0 log r

---------------------------------------------------------------------

軌道要素はM.P.E.C. 2017-X08に掲載されたものです。
光度グラフはComet for Windowsで作成したものです。

---------------------------------------------------------------------

Copyright(C) Seiichi Yoshida (comet@aerith.net). All rights reserved.